| time (UTC) | temp F | wind direction | speed MPH | gust MPH | rain 1hr in | rain 24hr in | rain mn in | humidity % | barometer mb |
| 20260901223224 | 87 | 0 | 2.0 | 5.0 | 0.00 | 0.04 | 0.01 | 30 | 1016.4 |
| 20260901222722 | 88 | 0 | 1.0 | 5.0 | 0.00 | 0.04 | 0.01 | 28 | 1016.2 |
| 20260901222222 | 88 | 146 | 3.0 | 10.0 | 0.00 | 0.04 | 0.01 | 29 | 1016.2 |
| 20260901221724 | 88 | 115 | 3.0 | 10.0 | 0.00 | 0.04 | 0.01 | 26 | 1016.2 |
| 20260901221222 | 88 | 0 | 3.0 | 7.0 | 0.00 | 0.04 | 0.01 | 29 | 1016.2 |
| 20260901220954 | 88 | 123 | 3.0 | 8.0 | 0.00 | 0.04 | 0.01 | 26 | 1016.2 |
| 20260901220222 | 88 | 0 | 2.0 | 8.0 | 0.00 | 0.04 | 0.01 | 31 | 1016.2 |
| 20260901215721 | 88 | 0 | 1.0 | 4.0 | 0.00 | 0.04 | 0.01 | 30 | 1016.4 |
| 20260901215452 | 88 | 0 | 1.0 | 4.0 | 0.00 | 0.04 | 0.01 | 28 | 1016.5 |
| 20260901214719 | 88 | 288 | 2.0 | 6.0 | 0.00 | 0.04 | 0.01 | 33 | 1016.5 |
| 20260901214449 | 87 | 0 | 2.0 | 6.0 | 0.00 | 0.04 | 0.01 | 29 | 1016.6 |
| 20260901213948 | 87 | 290 | 2.0 | 6.0 | 0.00 | 0.04 | 0.01 | 35 | 1016.6 |
| 20260901213216 | 87 | 0 | 2.0 | 6.0 | 0.00 | 0.04 | 0.01 | 29 | 1016.7 |
| 20260901212715 | 87 | 0 | 2.0 | 7.0 | 0.00 | 0.04 | 0.01 | 38 | 1016.9 |
| 20260901212215 | 86 | 62 | 1.0 | 7.0 | 0.00 | 0.04 | 0.01 | 31 | 1016.9 |
| 20260901211716 | 85 | 0 | 1.0 | 5.0 | 0.00 | 0.04 | 0.01 | 37 | 1017.1 |
| 20260901211217 | 84 | 0 | 4.0 | 8.0 | 0.00 | 0.04 | 0.01 | 33 | 1017.1 |
| 20260901210716 | 83 | 0 | 4.0 | 8.0 | 0.00 | 0.04 | 0.01 | 38 | 1017.2 |
| 20260901210217 | 83 | 0 | 1.0 | 8.0 | 0.00 | 0.04 | 0.01 | 41 | 1017.2 |
| 20260901205715 | 82 | 297 | 0.0 | 3.0 | 0.00 | 0.04 | 0.01 | 39 | 1017.3 |
| 20260901205214 | 81 | 297 | 1.0 | 12.0 | 0.00 | 0.04 | 0.01 | 40 | 1017.5 |
| 20260901204946 | 81 | 297 | 3.0 | 12.0 | 0.00 | 0.04 | 0.01 | 40 | 1017.6 |
| 20260901204215 | 81 | 0 | 7.0 | 14.0 | 0.00 | 0.04 | 0.01 | 41 | 1017.8 |
| 20260901203714 | 82 | 0 | 6.0 | 14.0 | 0.00 | 0.04 | 0.01 | 44 | 1017.8 |
| 20260901203447 | 84 | 0 | 3.0 | 14.0 | 0.00 | 0.04 | 0.01 | 46 | 1017.8 |
| 20260901202714 | 85 | 0 | 1.0 | 6.0 | 0.00 | 0.04 | 0.01 | 40 | 1017.5 |
| 20260901202446 | 86 | 61 | 3.0 | 6.0 | 0.00 | 0.04 | 0.01 | 32 | 1017.4 |
| 20260901201713 | 87 | 0 | 4.0 | 9.0 | 0.00 | 0.04 | 0.01 | 33 | 1017.4 |
| 20260901201214 | 86 | 0 | 4.0 | 11.0 | 0.00 | 0.04 | 0.01 | 32 | 1017.4 |
| 20260901200714 | 86 | 131 | 4.0 | 11.0 | 0.00 | 0.04 | 0.01 | 34 | 1017.5 |
| 20260901200445 | 86 | 111 | 5.0 | 12.0 | 0.00 | 0.04 | 0.01 | 33 | 1017.4 |
| 20260901195712 | 86 | 0 | 6.0 | 12.0 | 0.00 | 0.04 | 0.01 | 33 | 1017.4 |
| 20260901195212 | 85 | 0 | 6.0 | 13.0 | 0.00 | 0.04 | 0.01 | 34 | 1017.4 |
| 20260901194710 | 85 | 121 | 7.0 | 15.0 | 0.00 | 0.04 | 0.01 | 34 | 1017.5 |
| 20260901194211 | 85 | 0 | 7.0 | 15.0 | 0.00 | 0.04 | 0.01 | 36 | 1017.4 |
| 20260901193711 | 85 | 0 | 6.0 | 11.0 | 0.00 | 0.04 | 0.01 | 37 | 1017.5 |
| 20260901193210 | 84 | 0 | 4.0 | 10.0 | 0.00 | 0.04 | 0.01 | 38 | 1017.6 |
| 20260901192711 | 84 | 117 | 5.0 | 11.0 | 0.00 | 0.04 | 0.01 | 39 | 1017.6 |
| 20260901192210 | 84 | 0 | 5.0 | 13.0 | 0.00 | 0.04 | 0.01 | 37 | 1017.8 |
| 20260901191710 | 84 | 0 | 4.0 | 13.0 | 0.00 | 0.04 | 0.01 | 40 | 1017.8 |
| 20260901191443 | 84 | 0 | 5.0 | 9.0 | 0.00 | 0.04 | 0.01 | 39 | 1017.9 |
| 20260901190709 | 83 | 0 | 5.0 | 9.0 | 0.00 | 0.04 | 0.01 | 40 | 1018.0 |
| 20260901190439 | 83 | 0 | 5.0 | 13.0 | 0.00 | 0.04 | 0.01 | 39 | 1018.0 |
| 20260901185708 | 83 | 0 | 7.0 | 13.0 | 0.00 | 0.04 | 0.01 | 37 | 1018.1 |
| 20260901185439 | 82 | 0 | 6.0 | 12.0 | 0.00 | 0.04 | 0.01 | 40 | 1018.2 |
| 20260901184709 | 82 | 0 | 6.0 | 11.0 | 0.00 | 0.04 | 0.01 | 43 | 1018.2 |
| 20260901184209 | 82 | 126 | 7.0 | 14.0 | 0.00 | 0.04 | 0.01 | 41 | 1018.3 |
| 20260901183708 | 81 | 123 | 7.0 | 14.0 | 0.00 | 0.04 | 0.01 | 44 | 1018.4 |
| 20260901183207 | 81 | 117 | 7.0 | 14.0 | 0.00 | 0.04 | 0.01 | 41 | 1018.4 |
| 20260901182708 | 81 | 0 | 8.0 | 14.0 | 0.00 | 0.04 | 0.01 | 43 | 1018.4 |
| 20260901182208 | 81 | 0 | 7.0 | 14.0 | 0.00 | 0.04 | 0.01 | 46 | 1018.6 |
| 20260901181706 | 81 | 0 | 7.0 | 14.0 | 0.00 | 0.04 | 0.01 | 48 | 1018.7 |
| 20260901181206 | 81 | 0 | 7.0 | 14.0 | 0.00 | 0.04 | 0.01 | 47 | 1018.8 |
| 20260901180706 | 80 | 0 | 6.0 | 11.0 | 0.00 | 0.04 | 0.01 | 47 | 1018.9 |
| 20260901180206 | 80 | 0 | 4.0 | 10.0 | 0.00 | 0.04 | 0.01 | 46 | 1019.0 |
| 20260901175706 | 80 | 0 | 4.0 | 10.0 | 0.00 | 0.04 | 0.01 | 47 | 1019.0 |
| 20260901175207 | 80 | 0 | 4.0 | 11.0 | 0.00 | 0.04 | 0.01 | 47 | 1019.0 |
| 20260901174706 | 80 | 93 | 5.0 | 11.0 | 0.00 | 0.04 | 0.01 | 48 | 1019.1 |
| 20260901174206 | 79 | 116 | 4.0 | 9.0 | 0.00 | 0.04 | 0.01 | 48 | 1019.1 |
| 20260901173703 | 79 | 0 | 4.0 | 9.0 | 0.00 | 0.04 | 0.01 | 49 | 1019.3 |
| 20260901173204 | 78 | 100 | 3.0 | 7.0 | 0.00 | 0.04 | 0.01 | 51 | 1019.3 |
| 20260901172705 | 78 | 0 | 3.0 | 6.0 | 0.00 | 0.04 | 0.01 | 53 | 1019.4 |
| 20260901172204 | 78 | 0 | 3.0 | 6.0 | 0.00 | 0.04 | 0.01 | 54 | 1019.4 |
| 20260901171704 | 78 | 0 | 2.0 | 6.0 | 0.00 | 0.04 | 0.01 | 56 | 1019.5 |
| 20260901171205 | 78 | 0 | 1.0 | 5.0 | 0.00 | 0.04 | 0.01 | 58 | 1019.5 |
| 20260901170705 | 77 | 0 | 1.0 | 5.0 | 0.00 | 0.04 | 0.01 | 60 | 1019.5 |
| 20260901170435 | 77 | 0 | 1.0 | 5.0 | 0.00 | 0.04 | 0.01 | 62 | 1019.5 |
| 20260901165704 | 76 | 0 | 1.0 | 5.0 | 0.00 | 0.04 | 0.01 | 60 | 1019.5 |
| 20260901165203 | 76 | 0 | 1.0 | 5.0 | 0.00 | 0.04 | 0.01 | 61 | 1019.5 |
| 20260901164707 | 75 | 0 | 1.0 | 5.0 | 0.00 | 0.04 | 0.01 | 65 | 1019.5 |
| 20260901164701 | 76 | 0 | 1.0 | 5.0 | 0.00 | 0.04 | 0.01 | 63 | 1019.5 |
| 20260901164319 | 74 | 0 | 0.0 | 3.0 | 0.00 | 0.04 | 0.01 | 67 | 1019.5 |
| 20260901163433 | 73 | 104 | 1.0 | 4.0 | 0.00 | 0.04 | 0.01 | 70 | 1019.4 |
| 20260901162703 | 72 | 105 | 1.0 | 4.0 | 0.00 | 0.04 | 0.01 | 69 | 1019.4 |
| 20260901162202 | 71 | 0 | 1.0 | 3.0 | 0.00 | 0.04 | 0.01 | 72 | 1019.4 |
| 20260901161702 | 70 | 147 | 0.0 | 2.0 | 0.00 | 0.04 | 0.01 | 74 | 1019.5 |
| 20260901161200 | 69 | 194 | 0.0 | 0.0 | 0.00 | 0.04 | 0.01 | 76 | 1019.5 |
| 20260901160701 | 68 | 0 | 0.0 | 1.0 | 0.00 | 0.04 | 0.01 | 78 | 1019.5 |
| 20260901160430 | 67 | 0 | 0.0 | 2.0 | 0.00 | 0.04 | 0.01 | 78 | 1019.7 |
| 20260901155659 | 67 | 0 | 0.0 | 2.0 | 0.00 | 0.04 | 0.01 | 79 | 1019.6 |
| 20260901155159 | 67 | 84 | 0.0 | 2.0 | 0.00 | 0.04 | 0.01 | 79 | 1019.7 |
| 20260901154658 | 66 | 0 | 0.0 | 2.0 | 0.00 | 0.04 | 0.01 | 81 | 1019.7 |
| 20260901154200 | 66 | 0 | 0.0 | 1.0 | 0.00 | 0.04 | 0.01 | 82 | 1019.8 |
| 20260901153700 | 66 | 0 | 0.0 | 0.0 | 0.00 | 0.04 | 0.01 | 81 | 1019.7 |
| 20260901153159 | 65 | 293 | 0.0 | 0.0 | 0.00 | 0.04 | 0.01 | 81 | 1019.8 |
| 20260901152930 | 65 | 0 | 0.0 | 0.0 | 0.00 | 0.04 | 0.01 | 83 | 1019.8 |
| 20260901152200 | 65 | 0 | 0.0 | 0.0 | 0.00 | 0.04 | 0.01 | 83 | 1019.9 |
| 20260901151932 | 65 | 292 | 0.0 | 0.0 | 0.00 | 0.04 | 0.01 | 84 | 1019.8 |
| 20260901151200 | 64 | 0 | 0.0 | 0.0 | 0.00 | 0.04 | 0.01 | 85 | 1019.9 |
| 20260901150659 | 64 | 0 | 0.0 | 2.0 | 0.00 | 0.04 | 0.01 | 85 | 1019.7 |
| 20260901150158 | 64 | 0 | 0.0 | 2.0 | 0.00 | 0.04 | 0.01 | 86 | 1019.9 |
| 20260901145657 | 63 | 0 | 0.0 | 2.0 | 0.00 | 0.04 | 0.01 | 86 | 1019.9 |
| 20260901145157 | 63 | 0 | 0.0 | 2.0 | 0.00 | 0.04 | 0.01 | 87 | 1020.1 |
| 20260901144657 | 63 | 320 | 0.0 | 0.0 | 0.00 | 0.04 | 0.01 | 87 | 1019.8 |
| 20260901144157 | 63 | 0 | 0.0 | 0.0 | 0.00 | 0.04 | 0.01 | 88 | 1019.9 |
| 20260901143656 | 62 | 0 | 0.0 | 0.0 | 0.00 | 0.04 | 0.01 | 88 | 1019.9 |
| 20260901143157 | 62 | 0 | 0.0 | 0.0 | 0.00 | 0.04 | 0.01 | 89 | 1019.9 |
| 20260901142657 | 62 | 0 | 0.0 | 0.0 | 0.00 | 0.04 | 0.01 | 88 | 1020.1 |
| 20260901142156 | 62 | 0 | 0.0 | 0.0 | 0.00 | 0.04 | 0.01 | 89 | 1020.1 |
| 20260901141657 | 62 | 0 | 0.0 | 1.0 | 0.00 | 0.04 | 0.01 | 89 | 1020.1 |
| 20260901141426 | 61 | 0 | 0.0 | 1.0 | 0.00 | 0.04 | 0.01 | 90 | 1020.1 |
| 20260901140655 | 61 | 0 | 0.0 | 1.0 | 0.00 | 0.04 | 0.01 | 90 | 1020.1 |
| 20260901140154 | 61 | 0 | 0.0 | 0.0 | 0.00 | 0.04 | 0.01 | 91 | 1019.9 |
| 20260901135653 | 61 | 0 | 0.0 | 0.0 | 0.00 | 0.04 | 0.01 | 92 | 1019.8 |
| 20260901135154 | 61 | 0 | 0.0 | 0.0 | 0.00 | 0.04 | 0.01 | 91 | 1019.8 |
| 20260901134924 | 60 | 0 | 0.0 | 0.0 | 0.00 | 0.04 | 0.01 | 91 | 1019.8 |
| 20260901134423 | 60 | 0 | 0.0 | 0.0 | 0.00 | 0.04 | 0.01 | 91 | 1019.8 |
| 20260901133653 | 60 | 0 | 0.0 | 0.0 | 0.00 | 0.04 | 0.01 | 91 | 1019.7 |
| 20260901133153 | 60 | 0 | 0.0 | 0.0 | 0.00 | 0.04 | 0.01 | 91 | 1019.5 |
| 20260901132654 | 60 | 0 | 0.0 | 0.0 | 0.00 | 0.04 | 0.01 | 91 | 1019.6 |
| 20260901132423 | 60 | 0 | 0.0 | 0.0 | 0.00 | 0.04 | 0.01 | 91 | 1019.4 |
| 20260901131652 | 60 | 0 | 0.0 | 0.0 | 0.00 | 0.04 | 0.01 | 91 | 1019.3 |
| 20260901131154 | 60 | 0 | 0.0 | 2.0 | 0.00 | 0.04 | 0.01 | 91 | 1019.1 |
| 20260901130652 | 60 | 0 | 0.0 | 2.0 | 0.00 | 0.04 | 0.01 | 91 | 1019.1 |
| 20260901130154 | 60 | 0 | 0.0 | 3.0 | 0.00 | 0.04 | 0.01 | 92 | 1019.1 |
| 20260901125924 | 60 | 0 | 1.0 | 3.0 | 0.00 | 0.04 | 0.01 | 92 | 1019.1 |
| 20260901125425 | 60 | 0 | 0.0 | 3.0 | 0.00 | 0.04 | 0.01 | 92 | 1019.0 |
| 20260901124653 | 60 | 0 | 0.0 | 0.0 | 0.00 | 0.04 | 0.01 | 92 | 1018.9 |
| 20260901124152 | 60 | 0 | 0.0 | 0.0 | 0.00 | 0.04 | 0.01 | 92 | 1018.9 |
| 20260901123654 | 60 | 0 | 0.0 | 0.0 | 0.00 | 0.04 | 0.01 | 92 | 1018.9 |
| 20260901123423 | 60 | 0 | 0.0 | 0.0 | 0.00 | 0.04 | 0.01 | 92 | 1018.9 |
| 20260901123308 | 60 | 0 | 0.0 | 0.0 | 0.00 | 0.04 | 0.01 | 92 | 1018.8 |
| 20260901122153 | 60 | 0 | 0.0 | 0.0 | 0.00 | 0.04 | 0.01 | 92 | 1018.8 |
| 20260901121653 | 60 | 0 | 0.0 | 0.0 | 0.00 | 0.04 | 0.01 | 92 | 1018.8 |
| 20260901121154 | 60 | 0 | 0.0 | 0.0 | 0.00 | 0.04 | 0.01 | 91 | 1018.8 |
| 20260901120654 | 60 | 0 | 0.0 | 0.0 | 0.00 | 0.04 | 0.01 | 91 | 1018.7 |
| 20260901120154 | 60 | 0 | 0.0 | 0.0 | 0.00 | 0.04 | 0.01 | 91 | 1018.7 |
| 20260901115653 | 60 | 0 | 0.0 | 0.0 | 0.00 | 0.04 | 0.01 | 91 | 1018.7 |
| 20260901115154 | 60 | 0 | 0.0 | 0.0 | 0.00 | 0.04 | 0.01 | 91 | 1018.7 |
| 20260901114653 | 60 | 0 | 0.0 | 0.0 | 0.00 | 0.04 | 0.01 | 91 | 1018.7 |
| 20260901114153 | 60 | 0 | 0.0 | 0.0 | 0.00 | 0.04 | 0.01 | 91 | 1018.6 |
| 20260901113923 | 61 | 0 | 0.0 | 0.0 | 0.00 | 0.04 | 0.01 | 91 | 1018.6 |
| 20260901113153 | 61 | 0 | 0.0 | 0.0 | 0.00 | 0.04 | 0.01 | 91 | 1018.6 |
| 20260901112652 | 61 | 0 | 0.0 | 0.0 | 0.00 | 0.04 | 0.01 | 91 | 1018.7 |
| 20260901112154 | 61 | 0 | 0.0 | 0.0 | 0.00 | 0.04 | 0.01 | 91 | 1018.7 |
| 20260901111652 | 61 | 0 | 0.0 | 0.0 | 0.00 | 0.04 | 0.01 | 91 | 1018.8 |
| 20260901111154 | 61 | 0 | 0.0 | 0.0 | 0.00 | 0.04 | 0.01 | 91 | 1018.8 |
| 20260901110652 | 61 | 0 | 0.0 | 0.0 | 0.00 | 0.04 | 0.01 | 91 | 1018.8 |
| 20260901110154 | 61 | 0 | 0.0 | 0.0 | 0.00 | 0.04 | 0.01 | 91 | 1018.7 |
| 20260901105654 | 61 | 0 | 0.0 | 0.0 | 0.00 | 0.04 | 0.01 | 91 | 1018.7 |
| 20260901105154 | 61 | 0 | 0.0 | 0.0 | 0.00 | 0.04 | 0.01 | 91 | 1018.7 |
| 20260901104652 | 61 | 0 | 0.0 | 0.0 | 0.00 | 0.04 | 0.01 | 91 | 1018.7 |
| 20260901104154 | 61 | 0 | 0.0 | 0.0 | 0.00 | 0.04 | 0.01 | 91 | 1018.8 |
| 20260901103654 | 61 | 0 | 0.0 | 0.0 | 0.00 | 0.04 | 0.01 | 91 | 1018.9 |
| 20260901103425 | 61 | 0 | 0.0 | 0.0 | 0.00 | 0.04 | 0.01 | 91 | 1018.9 |
| 20260901102652 | 61 | 0 | 0.0 | 0.0 | 0.00 | 0.04 | 0.01 | 91 | 1018.9 |
| 20260901102153 | 61 | 0 | 0.0 | 0.0 | 0.00 | 0.04 | 0.01 | 91 | 1018.9 |
| 20260901101922 | 61 | 0 | 0.0 | 0.0 | 0.00 | 0.04 | 0.01 | 91 | 1018.9 |
| 20260901101424 | 61 | 0 | 0.0 | 0.0 | 0.00 | 0.04 | 0.01 | 91 | 1019.0 |
| 20260901100651 | 62 | 0 | 0.0 | 0.0 | 0.00 | 0.04 | 0.01 | 91 | 1019.0 |
| 20260901100151 | 62 | 0 | 0.0 | 0.0 | 0.00 | 0.04 | 0.01 | 91 | 1019.1 |
| 20260901095652 | 62 | 0 | 0.0 | 0.0 | 0.00 | 0.04 | 0.01 | 91 | 1019.3 |
| 20260901095152 | 62 | 0 | 0.0 | 0.0 | 0.00 | 0.04 | 0.01 | 91 | 1019.3 |
| 20260901094650 | 62 | 0 | 0.0 | 0.0 | 0.00 | 0.04 | 0.01 | 91 | 1019.3 |
| 20260901094421 | 62 | 0 | 0.0 | 0.0 | 0.00 | 0.04 | 0.01 | 91 | 1019.1 |
| 20260901093921 | 62 | 0 | 0.0 | 0.0 | 0.00 | 0.04 | 0.01 | 91 | 1019.4 |
| 20260901093151 | 62 | 0 | 0.0 | 0.0 | 0.00 | 0.04 | 0.01 | 91 | 1019.5 |
| 20260901092651 | 62 | 0 | 0.0 | 0.0 | 0.00 | 0.04 | 0.01 | 91 | 1019.5 |
| 20260901092151 | 62 | 0 | 0.0 | 0.0 | 0.00 | 0.04 | 0.01 | 91 | 1019.5 |
| 20260901091652 | 62 | 0 | 0.0 | 0.0 | 0.00 | 0.04 | 0.01 | 91 | 1019.5 |
| 20260901091150 | 62 | 0 | 0.0 | 0.0 | 0.00 | 0.04 | 0.01 | 91 | 1019.5 |
| 20260901090923 | 62 | 0 | 0.0 | 0.0 | 0.00 | 0.04 | 0.01 | 90 | 1019.6 |
| 20260901090150 | 62 | 0 | 0.0 | 0.0 | 0.00 | 0.04 | 0.01 | 90 | 1019.7 |
| 20260901085651 | 62 | 0 | 0.0 | 0.0 | 0.00 | 0.04 | 0.01 | 89 | 1019.8 |
| 20260901085150 | 62 | 0 | 0.0 | 0.0 | 0.00 | 0.04 | 0.01 | 89 | 1019.8 |
| 20260901084651 | 62 | 0 | 0.0 | 0.0 | 0.00 | 0.04 | 0.01 | 90 | 1019.9 |
| 20260901084421 | 62 | 0 | 0.0 | 0.0 | 0.00 | 0.04 | 0.01 | 90 | 1019.9 |
| 20260901083651 | 62 | 0 | 0.0 | 0.0 | 0.00 | 0.04 | 0.01 | 90 | 1019.8 |
| 20260901083151 | 62 | 0 | 0.0 | 0.0 | 0.00 | 0.04 | 0.01 | 89 | 1019.9 |
| 20260901082652 | 62 | 0 | 0.0 | 0.0 | 0.00 | 0.04 | 0.01 | 89 | 1020.1 |
| 20260901082156 | 63 | 0 | 0.0 | 0.0 | 0.00 | 0.04 | 0.01 | 89 | 1020.3 |
| 20260901082150 | 63 | 0 | 0.0 | 0.0 | 0.00 | 0.04 | 0.01 | 89 | 1020.1 |
| 20260901081150 | 63 | 0 | 0.0 | 0.0 | 0.00 | 0.04 | 0.01 | 89 | 1020.4 |
| 20260901080652 | 63 | 0 | 0.0 | 0.0 | 0.01 | 0.04 | 0.01 | 89 | 1020.4 |
| 20260901080151 | 63 | 0 | 0.0 | 0.0 | 0.01 | 0.04 | 0.01 | 89 | 1020.5 |
| 20260901075652 | 63 | 0 | 0.0 | 0.0 | 0.01 | 0.04 | 0.01 | 89 | 1020.6 |
| 20260901075422 | 63 | 0 | 0.0 | 0.0 | 0.01 | 0.04 | 0.01 | 89 | 1020.6 |
| 20260901074650 | 63 | 0 | 0.0 | 0.0 | 0.01 | 0.04 | 0.01 | 89 | 1020.8 |
| 20260901074151 | 63 | 0 | 0.0 | 0.0 | 0.01 | 0.04 | 0.01 | 88 | 1020.8 |
| 20260901073651 | 63 | 0 | 0.0 | 0.0 | 0.01 | 0.04 | 0.01 | 88 | 1020.8 |
| 20260901073150 | 63 | 0 | 0.0 | 1.0 | 0.01 | 0.04 | 0.01 | 88 | 1020.6 |
| 20260901072650 | 64 | 0 | 0.0 | 1.0 | 0.01 | 0.04 | 0.01 | 88 | 1020.5 |
| 20260901072151 | 64 | 0 | 0.0 | 2.0 | 0.01 | 0.04 | 0.01 | 87 | 1020.6 |
| 20260901071651 | 64 | 0 | 1.0 | 2.0 | 0.01 | 0.04 | 0.01 | 87 | 1020.6 |
| 20260901071152 | 64 | 96 | 0.0 | 2.0 | 0.01 | 0.04 | 0.01 | 87 | 1020.8 |
| 20260901070651 | 64 | 103 | 1.0 | 2.0 | 0.00 | 0.03 | 0.00 | 87 | 1020.8 |
| 20260901070151 | 64 | 116 | 1.0 | 3.0 | 0.00 | 0.03 | 0.00 | 86 | 1021.0 |
| 20260901065652 | 64 | 0 | 1.0 | 3.0 | 0.00 | 0.03 | 0.00 | 86 | 1020.9 |
| 20260901065152 | 64 | 0 | 1.0 | 2.0 | 0.00 | 0.03 | 0.00 | 86 | 1020.8 |
| 20260901064651 | 64 | 0 | 1.0 | 2.0 | 0.00 | 0.03 | 0.00 | 87 | 1020.3 |
| 20260901064151 | 63 | 0 | 1.0 | 2.0 | 0.00 | 0.03 | 0.00 | 87 | 1020.2 |
| 20260901063651 | 63 | 117 | 0.0 | 2.0 | 0.00 | 0.03 | 0.00 | 87 | 1020.2 |
| 20260901063151 | 63 | 0 | 0.0 | 0.0 | 0.00 | 0.03 | 0.00 | 87 | 1019.8 |
| 20260901062652 | 63 | 0 | 0.0 | 0.0 | 0.00 | 0.03 | 0.00 | 88 | 1019.7 |
| 20260901062150 | 63 | 0 | 0.0 | 0.0 | 0.00 | 0.03 | 0.00 | 87 | 1019.7 |
| 20260901061656 | 63 | 0 | 0.0 | 0.0 | 0.00 | 0.03 | 0.00 | 87 | 1019.6 |
| 20260901061651 | 63 | 0 | 0.0 | 0.0 | 0.00 | 0.03 | 0.00 | 87 | 1019.6 |
| 20260901060648 | 63 | 0 | 0.0 | 0.0 | 0.00 | 0.03 | 0.00 | 87 | 1019.6 |
| 20260901060146 | 63 | 0 | 0.0 | 0.0 | 0.00 | 0.03 | 0.00 | 87 | 1019.6 |
| 20260901055646 | 63 | 0 | 0.0 | 1.0 | 0.00 | 0.03 | 0.03 | 87 | 1019.6 |
| 20260901055146 | 63 | 0 | 0.0 | 1.0 | 0.00 | 0.03 | 0.03 | 87 | 1019.8 |
| 20260901054643 | 63 | 0 | 0.0 | 1.0 | 0.00 | 0.03 | 0.03 | 87 | 1019.9 |
| 20260901054142 | 63 | 0 | 0.0 | 2.0 | 0.00 | 0.03 | 0.03 | 87 | 1020.1 |
| 20260901053643 | 63 | 0 | 0.0 | 2.0 | 0.00 | 0.03 | 0.03 | 87 | 1020.2 |
| 20260901053147 | 63 | 0 | 1.0 | 2.0 | 0.01 | 0.03 | 0.03 | 88 | 1020.3 |
| 20260901053143 | 63 | 0 | 0.0 | 2.0 | 0.01 | 0.03 | 0.03 | 88 | 1020.3 |
| 20260901052141 | 63 | 338 | 1.0 | 2.0 | 0.01 | 0.03 | 0.03 | 88 | 1020.4 |
| 20260901051640 | 63 | 0 | 0.0 | 0.0 | 0.01 | 0.03 | 0.03 | 87 | 1020.5 |
| 20260901051140 | 63 | 0 | 0.0 | 0.0 | 0.02 | 0.03 | 0.03 | 86 | 1020.3 |
| 20260901050639 | 63 | 0 | 0.0 | 0.0 | 0.03 | 0.03 | 0.03 | 86 | 1020.4 |
| 20260901050139 | 63 | 0 | 0.0 | 0.0 | 0.03 | 0.03 | 0.03 | 85 | 1020.2 |
| 20260901045638 | 63 | 0 | 0.0 | 1.0 | 0.03 | 0.03 | 0.03 | 85 | 1020.1 |
| 20260901045139 | 64 | 0 | 0.0 | 2.0 | 0.03 | 0.03 | 0.03 | 84 | 1020.1 |
| 20260901044909 | 64 | 0 | 1.0 | 6.0 | 0.03 | 0.03 | 0.03 | 84 | 1020.1 |
| 20260901044409 | 64 | 0 | 2.0 | 6.0 | 0.03 | 0.03 | 0.03 | 83 | 1020.2 |
| 20260901043638 | 64 | 0 | 1.0 | 6.0 | 0.03 | 0.03 | 0.03 | 82 | 1020.2 |
| 20260901043139 | 65 | 0 | 0.0 | 3.0 | 0.02 | 0.02 | 0.02 | 80 | 1020.6 |
| 20260901042639 | 65 | 0 | 1.0 | 11.0 | 0.02 | 0.02 | 0.02 | 78 | 1021.0 |
| 20260901042137 | 65 | 0 | 3.0 | 11.0 | 0.02 | 0.02 | 0.02 | 77 | 1021.3 |
| 20260901041638 | 66 | 226 | 5.0 | 13.0 | 0.02 | 0.02 | 0.02 | 74 | 1021.4 |
| 20260901041136 | 68 | 0 | 7.0 | 16.0 | 0.01 | 0.01 | 0.01 | 71 | 1021.7 |
| 20260901040638 | 69 | 0 | 7.0 | 16.0 | 0.00 | 0.00 | 0.00 | 67 | 1021.8 |
| 20260901040405 | 70 | 194 | 6.0 | 11.0 | 0.00 | 0.00 | 0.00 | 65 | 1021.8 |
| 20260901035634 | 70 | 0 | 6.0 | 18.0 | 0.00 | 0.00 | 0.00 | 60 | 1022.0 |
| 20260901035135 | 71 | 0 | 7.0 | 18.0 | 0.00 | 0.00 | 0.00 | 59 | 1022.0 |
| 20260901034905 | 72 | 0 | 9.0 | 21.0 | 0.00 | 0.00 | 0.00 | 58 | 1022.1 |
| 20260901034133 | 72 | 171 | 9.0 | 21.0 | 0.00 | 0.00 | 0.00 | 56 | 1021.9 |
| 20260901033632 | 72 | 0 | 6.0 | 19.0 | 0.00 | 0.00 | 0.00 | 53 | 1021.8 |
| 20260901033132 | 72 | 0 | 5.0 | 9.0 | 0.00 | 0.00 | 0.00 | 51 | 1021.0 |
| 20260901032904 | 72 | 0 | 5.0 | 8.0 | 0.00 | 0.00 | 0.00 | 52 | 1020.4 |
| 20260901032132 | 72 | 0 | 5.0 | 10.0 | 0.00 | 0.00 | 0.00 | 53 | 1020.2 |
| 20260901031632 | 72 | 0 | 6.0 | 10.0 | 0.00 | 0.00 | 0.00 | 52 | 1020.1 |
| 20260901031132 | 72 | 0 | 5.0 | 9.0 | 0.00 | 0.00 | 0.00 | 53 | 1019.9 |
| 20260901030633 | 72 | 0 | 5.0 | 11.0 | 0.00 | 0.00 | 0.00 | 53 | 1019.9 |
| 20260901030132 | 72 | 309 | 6.0 | 11.0 | 0.00 | 0.00 | 0.00 | 54 | 1019.9 |
| 20260901025633 | 72 | 0 | 6.0 | 11.0 | 0.00 | 0.00 | 0.00 | 54 | 1019.8 |
| 20260901025132 | 72 | 0 | 7.0 | 13.0 | 0.00 | 0.00 | 0.00 | 53 | 1019.7 |
| 20260901024632 | 73 | 0 | 7.0 | 13.0 | 0.00 | 0.00 | 0.00 | 52 | 1019.6 |
| 20260901024132 | 73 | 0 | 7.0 | 12.0 | 0.00 | 0.00 | 0.00 | 52 | 1019.6 |
| 20260901023632 | 73 | 0 | 7.0 | 12.0 | 0.00 | 0.00 | 0.00 | 52 | 1019.6 |
| 20260901023132 | 73 | 0 | 6.0 | 11.0 | 0.00 | 0.00 | 0.00 | 52 | 1019.4 |
| 20260901022630 | 74 | 0 | 7.0 | 12.0 | 0.00 | 0.00 | 0.00 | 52 | 1019.4 |
| 20260901022128 | 74 | 0 | 6.0 | 12.0 | 0.00 | 0.00 | 0.00 | 52 | 1019.4 |
| 20260901021628 | 74 | 0 | 5.0 | 10.0 | 0.00 | 0.00 | 0.00 | 50 | 1019.4 |
| 20260901021127 | 75 | 0 | 5.0 | 9.0 | 0.00 | 0.00 | 0.00 | 51 | 1019.4 |
| 20260901020627 | 75 | 0 | 5.0 | 11.0 | 0.00 | 0.00 | 0.00 | 49 | 1019.5 |
| 20260901020126 | 76 | 0 | 6.0 | 11.0 | 0.00 | 0.00 | 0.00 | 50 | 1019.4 |
| 20260901015626 | 77 | 0 | 5.0 | 11.0 | 0.00 | 0.00 | 0.00 | 47 | 1019.3 |
| 20260901015126 | 77 | 0 | 4.0 | 7.0 | 0.00 | 0.00 | 0.00 | 41 | 1019.1 |
| 20260901014626 | 78 | 0 | 4.0 | 7.0 | 0.00 | 0.00 | 0.00 | 41 | 1019.1 |
| 20260901014128 | 78 | 0 | 4.0 | 8.0 | 0.00 | 0.00 | 0.00 | 42 | 1019.0 |
| 20260901013627 | 78 | 0 | 3.0 | 9.0 | 0.00 | 0.00 | 0.00 | 40 | 1018.9 |
| 20260901013400 | 78 | 0 | 1.0 | 9.0 | 0.00 | 0.00 | 0.00 | 41 | 1018.9 |
| 20260901012627 | 78 | 0 | 1.0 | 3.0 | 0.00 | 0.00 | 0.00 | 41 | 1018.8 |
| 20260901012126 | 79 | 0 | 0.0 | 2.0 | 0.00 | 0.00 | 0.00 | 42 | 1018.7 |
| 20260901011626 | 79 | 0 | 0.0 | 1.0 | 0.00 | 0.00 | 0.00 | 44 | 1018.6 |
| 20260901011125 | 79 | 0 | 0.0 | 2.0 | 0.00 | 0.00 | 0.00 | 41 | 1018.4 |
| 20260901010628 | 79 | 0 | 0.0 | 2.0 | 0.00 | 0.00 | 0.00 | 40 | 1018.4 |
| 20260901010128 | 80 | 0 | 0.0 | 1.0 | 0.00 | 0.00 | 0.00 | 40 | 1018.6 |
| 20260901005626 | 80 | 0 | 0.0 | 1.0 | 0.00 | 0.00 | 0.00 | 38 | 1018.4 |
| 20260901005127 | 80 | 0 | 0.0 | 2.0 | 0.00 | 0.00 | 0.00 | 39 | 1018.4 |
| 20260901004626 | 81 | 0 | 0.0 | 2.0 | 0.00 | 0.00 | 0.00 | 36 | 1018.4 |
| 20260901004126 | 81 | 0 | 0.0 | 1.0 | 0.00 | 0.00 | 0.00 | 37 | 1018.4 |
| 20260901003858 | 81 | 0 | 1.0 | 3.0 | 0.00 | 0.00 | 0.00 | 36 | 1018.3 |
| 20260901003126 | 82 | 0 | 1.0 | 3.0 | 0.00 | 0.00 | 0.00 | 35 | 1018.3 |
| 20260901002625 | 82 | 0 | 1.0 | 3.0 | 0.00 | 0.00 | 0.00 | 34 | 1018.3 |
| 20260901002125 | 82 | 0 | 1.0 | 3.0 | 0.00 | 0.00 | 0.00 | 33 | 1018.3 |
| 20260901001855 | 82 | 0 | 1.0 | 4.0 | 0.00 | 0.00 | 0.00 | 35 | 1018.3 |
| 20260901001122 | 83 | 0 | 2.0 | 5.0 | 0.00 | 0.00 | 0.00 | 33 | 1018.3 |
| 20260901000623 | 83 | 0 | 2.0 | 5.0 | 0.00 | 0.00 | 0.00 | 32 | 1018.3 |
| 20260901000352 | 83 | 135 | 2.0 | 6.0 | 0.00 | 0.00 | 0.00 | 36 | 1018.3 |
| 20260831235622 | 83 | 135 | 3.0 | 7.0 | 0.00 | 0.00 | 0.00 | 32 | 1018.3 |
| 20260831235124 | 84 | 113 | 4.0 | 7.0 | 0.00 | 0.00 | 0.00 | 30 | 1018.2 |
| 20260831234622 | 84 | 130 | 4.0 | 8.0 | 0.00 | 0.00 | 0.00 | 32 | 1018.2 |
| 20260831234122 | 84 | 0 | 5.0 | 9.0 | 0.00 | 0.00 | 0.00 | 31 | 1018.2 |
| 20260831233625 | 84 | 0 | 5.0 | 11.0 | 0.00 | 0.00 | 0.00 | 31 | 1018.2 |
| 20260831233621 | 84 | 0 | 5.0 | 11.0 | 0.00 | 0.00 | 0.00 | 31 | 1018.2 |
| 20260831232621 | 84 | 0 | 5.0 | 10.0 | 0.00 | 0.00 | 0.00 | 31 | 1018.3 |
| 20260831232120 | 84 | 0 | 5.0 | 9.0 | 0.00 | 0.00 | 0.00 | 31 | 1018.3 |
| 20260831231618 | 84 | 0 | 5.0 | 10.0 | 0.00 | 0.00 | 0.00 | 31 | 1018.3 |
| 20260831231118 | 84 | 0 | 5.0 | 10.0 | 0.00 | 0.00 | 0.00 | 31 | 1018.3 |
| 20260831230616 | 85 | 150 | 5.0 | 11.0 | 0.00 | 0.00 | 0.00 | 31 | 1018.4 |
| 20260831230116 | 85 | 0 | 6.0 | 12.0 | 0.00 | 0.00 | 0.00 | 31 | 1018.3 |
| 20260831225615 | 85 | 121 | 6.0 | 12.0 | 0.00 | 0.00 | 0.00 | 30 | 1018.3 |
| 20260831225114 | 86 | 0 | 6.0 | 13.0 | 0.00 | 0.00 | 0.00 | 30 | 1018.4 |
| 20260831224616 | 86 | 0 | 7.0 | 14.0 | 0.00 | 0.00 | 0.00 | 30 | 1018.3 |
| 20260831224115 | 87 | 0 | 6.0 | 14.0 | 0.00 | 0.00 | 0.00 | 30 | 1018.2 |
| 20260831223614 | 87 | 174 | 6.0 | 13.0 | 0.00 | 0.00 | 0.00 | 31 | 1018.3 |